Crosby, ND

2:31 AM CST on November 19, 2019 (GMT -0600)
Crosby

Weather History for KD50 - September, 2019

Change the Weather History Date:

Wednesday, September 18, 2019

  Actual Average (WUND) Record (WUND)
Temperature  
Mean Temperature 65 °F -  
Max Temperature 75 °F - - (-1)
Min Temperature 55 °F - - (-1)
Growing Degree Days 15 (Base 50)    
Moisture  
Dew Point 58 °F    
Average Humidity 82    
Maximum Humidity 100    
Minimum Humidity 44    
Precipitation  
Precipitation 0.00 in - - ()
Sea Level Pressure  
Sea Level Pressure 29.74 in    
Wind  
Wind Speed 12 mph (WNW)    
Max Wind Speed 24 mph    
Max Gust Speed 31 mph    
Visibility 10 miles    
Events Thunderstorm    
Averages and records for this station are not official NWS values.
T = Trace of Precipitation, MM = Missing Value Source: NWS Daily Summary

Daily Weather History Graph

Daily Weather History Graph

Search for Another Location

Airport or City:

Astronomy

Sep. 18, 2019 Rise Set
Actual Time 7:33 AM CDT 7:59 PM CDT
Civil Twilight 7:02 AM CDT 8:31 PM CDT
Nautical Twilight 6:24 AM CDT 9:09 PM CDT
Astronomical Twilight 5:45 AM CDT 9:48 PM CDT
Moon 10:14 PM CDT (9/18) 11:58 AM CDT (9/18)
Length of Visible Light 13h 29m
Length of Day
12h 26m
Waning Gibbous, 82% of the Moon is Illuminated
Sep 18
Waning Gibbous
Sep 21
Last Quarter
Sep 28
New
Oct 5
First Quarter
Oct 13
Full

Hourly Weather History & Observations

Time (CDT) Temp. Dew Point Humidity Pressure Visibility Wind Dir Wind Speed Gust Speed Precip Events Conditions
12:15 AM 60.8 °F 60.8 °F 100% 29.54 in 10.0 mi NNW 9.2 mph - N/A Thunderstorm Overcast
12:35 AM 60.8 °F 60.8 °F 100% 29.52 in 10.0 mi NNW 5.8 mph - N/A Thunderstorm Mostly Cloudy
12:55 AM 59.0 °F 59.0 °F 100% 29.49 in 10.0 mi SE 5.8 mph - N/A   Partly Cloudy
1:35 AM 59.0 °F 59.0 °F 100% 29.48 in 10.0 mi South 9.2 mph - N/A   Clear
1:55 AM 60.8 °F 60.8 °F 100% 29.47 in 7.0 mi SW 6.9 mph - N/A   Clear
2:15 AM 60.8 °F 60.8 °F 100% 29.47 in 3.0 mi West 8.1 mph - N/A   Clear
2:35 AM 60.8 °F 60.8 °F 100% 29.51 in 5.0 mi West 6.9 mph - N/A   Clear
2:55 AM 64.4 °F 64.4 °F 100% 29.53 in 7.0 mi WNW 11.5 mph - N/A   Mostly Cloudy
3:15 AM 64.4 °F 64.4 °F 100% 29.54 in 10.0 mi NW 11.5 mph - N/A   Overcast
3:35 AM 62.6 °F 62.6 °F 100% 29.54 in 10.0 mi NNW 12.7 mph - N/A   Overcast
3:55 AM 62.6 °F 62.6 °F 100% 29.53 in 10.0 mi NNW 8.1 mph 13.8 mph N/A   Overcast
4:15 AM 62.6 °F 62.6 °F 100% 29.53 in 10.0 mi NNW 16.1 mph - N/A Thunderstorm Mostly Cloudy
4:35 AM 62.6 °F 62.6 °F 100% 29.56 in 10.0 mi NW 15.0 mph 20.7 mph N/A   Overcast
4:55 AM 62.6 °F 62.6 °F 100% 29.58 in 10.0 mi NNW 13.8 mph - N/A Thunderstorm Overcast
5:15 AM 60.8 °F 60.8 °F 100% 29.59 in 10.0 mi NW 17.3 mph - N/A   Overcast
5:35 AM 60.8 °F 60.8 °F 100% 29.60 in 10.0 mi NW 12.7 mph - N/A Thunderstorm Overcast
5:55 AM 60.8 °F 60.8 °F 100% 29.61 in 10.0 mi NW 11.5 mph - N/A   Overcast
6:15 AM 59.0 °F 59.0 °F 100% 29.61 in 10.0 mi NW 13.8 mph - N/A   Overcast
6:35 AM 59.0 °F 59.0 °F 100% 29.63 in 10.0 mi WNW 16.1 mph - N/A   Overcast
6:55 AM - - N/A% 29.64 in 10.0 mi NW 16.1 mph - N/A   Overcast
7:15 AM 60.8 °F 60.8 °F 100% 29.65 in 10.0 mi NW 13.8 mph 21.9 mph N/A   Overcast
7:35 AM 60.8 °F 60.8 °F 100% 29.66 in 10.0 mi NW 15.0 mph 21.9 mph N/A   Overcast
7:55 AM 60.8 °F 60.8 °F 100% 29.67 in 10.0 mi WNW 15.0 mph 24.2 mph N/A   Overcast
8:15 AM 60.8 °F 60.8 °F 100% 29.68 in 10.0 mi WNW 19.6 mph - N/A   Overcast
8:35 AM 60.8 °F 60.8 °F 100% 29.69 in 10.0 mi WNW 19.6 mph 27.6 mph N/A   Overcast
8:55 AM 60.8 °F 60.8 °F 100% 29.70 in 10.0 mi NW 18.4 mph - N/A   Overcast
9:15 AM 60.8 °F 59.0 °F 94% 29.71 in 10.0 mi WNW 19.6 mph - N/A   Overcast
9:35 AM 60.8 °F 59.0 °F 94% 29.72 in 10.0 mi WNW 16.1 mph 24.2 mph N/A   Overcast
9:55 AM 60.8 °F 59.0 °F 94% 29.74 in 10.0 mi WNW 19.6 mph 25.3 mph N/A   Overcast
10:15 AM 60.8 °F 59.0 °F 94% 29.74 in 10.0 mi NW 23.0 mph 31.1 mph N/A   Overcast
10:35 AM 60.8 °F 60.8 °F 100% 29.75 in 10.0 mi WNW 20.7 mph 27.6 mph N/A   Overcast
10:55 AM 62.6 °F 60.8 °F 94% 29.76 in 10.0 mi WNW 19.6 mph 26.5 mph N/A   Overcast
11:15 AM 64.4 °F 60.8 °F 88% 29.76 in 10.0 mi NW 24.2 mph - N/A   Mostly Cloudy
11:35 AM 66.2 °F 59.0 °F 78% 29.78 in 10.0 mi NW 18.4 mph 26.5 mph N/A   Scattered Clouds
11:55 AM 69.8 °F 57.2 °F 64% 29.78 in 10.0 mi WNW 20.7 mph 26.5 mph N/A   Clear
12:15 PM 69.8 °F 57.2 °F 64% 29.78 in 10.0 mi WNW 20.7 mph 26.5 mph N/A   Clear
12:35 PM 71.6 °F 57.2 °F 60% 29.79 in 10.0 mi WNW 20.7 mph 27.6 mph N/A   Clear
12:55 PM 71.6 °F 57.2 °F 60% 29.80 in 10.0 mi WNW 20.7 mph 27.6 mph N/A   Clear
1:15 PM 71.6 °F 57.2 °F 60% 29.80 in 10.0 mi NW 16.1 mph 24.2 mph N/A   Clear
1:35 PM 73.4 °F 57.2 °F 57% 29.80 in 10.0 mi WNW 20.7 mph - N/A   Clear
1:55 PM 73.4 °F 55.4 °F 53% 29.80 in 10.0 mi WNW 17.3 mph 24.2 mph N/A   Clear
2:15 PM 73.4 °F 55.4 °F 53% 29.81 in 10.0 mi WNW 18.4 mph - N/A   Clear
2:35 PM 75.2 °F 55.4 °F 50% 29.81 in 10.0 mi WNW 20.7 mph - N/A   Clear
2:55 PM 75.2 °F 55.4 °F 50% 29.81 in 10.0 mi WNW 17.3 mph 26.5 mph N/A   Partly Cloudy
3:15 PM 75.2 °F 55.4 °F 50% 29.81 in 10.0 mi WNW 15.0 mph 23.0 mph N/A   Partly Cloudy
3:35 PM 75.2 °F 55.4 °F 50% 29.81 in 10.0 mi NW 18.4 mph - N/A   Scattered Clouds
3:55 PM 75.2 °F 55.4 °F 50% 29.81 in 10.0 mi NW 15.0 mph 23.0 mph N/A   Scattered Clouds
4:15 PM 75.2 °F 55.4 °F 50% 29.82 in 10.0 mi NW 16.1 mph - N/A   Scattered Clouds
4:35 PM 75.2 °F 53.6 °F 47% 29.81 in 10.0 mi NW 15.0 mph 21.9 mph N/A   Clear
4:55 PM 75.2 °F 53.6 °F 47% 29.81 in 10.0 mi NW 16.1 mph - N/A   Clear
5:15 PM 75.2 °F 53.6 °F 47% 29.82 in 10.0 mi WNW 11.5 mph 19.6 mph N/A   Clear
5:35 PM 75.2 °F 51.8 °F 44% 29.83 in 10.0 mi WNW 11.5 mph - N/A   Clear
5:55 PM 75.2 °F 51.8 °F 44% 29.83 in 10.0 mi NW 11.5 mph - N/A   Clear
6:15 PM 75.2 °F 51.8 °F 44% 29.83 in 10.0 mi NW 9.2 mph - N/A   Clear
6:35 PM 73.4 °F 53.6 °F 50% 29.84 in 10.0 mi North 8.1 mph 15.0 mph N/A   Clear
6:55 PM 73.4 °F 53.6 °F 50% 29.84 in 10.0 mi NW 10.4 mph - N/A   Clear
7:15 PM 71.6 °F 53.6 °F 53% 29.85 in 10.0 mi NNW 6.9 mph - N/A   Clear
7:35 PM 69.8 °F 55.4 °F 60% 29.86 in 10.0 mi NW 4.6 mph - N/A   Clear
8:15 PM 62.6 °F 57.2 °F 82% 29.88 in 10.0 mi West 4.6 mph - N/A   Clear
8:35 PM 60.8 °F 57.2 °F 88% 29.89 in 10.0 mi West 3.5 mph - N/A   Clear
8:55 PM 59.0 °F 57.2 °F 94% 29.90 in 10.0 mi WSW 3.5 mph - N/A   Clear
9:15 PM 57.2 °F 55.4 °F 94% 29.91 in 10.0 mi WSW 4.6 mph - N/A   Clear
9:35 PM 57.2 °F 55.4 °F 94% 29.91 in 10.0 mi SW 3.5 mph - N/A   Clear
9:55 PM 57.2 °F 55.4 °F 94% 29.91 in 10.0 mi Calm Calm - N/A   Clear
10:15 PM 57.2 °F 57.2 °F 100% 29.91 in 8.0 mi South 4.6 mph - N/A   Clear
10:35 PM 55.4 °F 55.4 °F 100% 29.92 in 10.0 mi Calm Calm - N/A   Clear
10:55 PM 55.4 °F 55.4 °F 100% 29.92 in 10.0 mi South 4.6 mph - N/A   Scattered Clouds
11:15 PM 55.4 °F 55.4 °F 100% 29.92 in 10.0 mi SSW 9.2 mph - N/A   Partly Cloudy
11:35 PM 55.4 °F 55.4 °F 100% 29.92 in 10.0 mi SSW 6.9 mph - N/A   Partly Cloudy
11:55 PM 55.4 °F 55.4 °F 100% 29.93 in 10.0 mi South 4.6 mph - N/A   Scattered Clouds